Probability
0 0 0 0 0 0 0 0 0 0 0 0 0 0 0 0 0 0 0 0 0 0 0 0 0 0 0 0 0 0 0 0 0 0 0 0 0 0 0 0 0 0 0 0
0 0 0 0 0 0 0 0 0 0 0 0 0 0 0 0 0 0 0 0 0 0 0 0 0 0 0 0 0 0 0 0 0 0 0 0 0 0 0 0 0 0 0 0
0 0 0 0 0 0 0 0 0 0 0 0 0 0 0 0 0 0 0 0 0 0 0 0 0 0 0 0 0 0 0 0 0 0 0 0 0 0 0 0 0 0 0 0
0 0 0 0 0 0 0 0 0 0 0 0 0 0 0 0 0 0 0 0 0 0 0 0 0 0 0 0 0 0 0 0 0 0 0 0 0 0 0 0 0 0 0 0
0 0 0 0 0 0 0 0 0 0 0 0 0 0 0 0 0 0 0 0 0 0 0 0 0 0 0 0 0 0 0 0 0 0 0 0 0 0 0 0 0 0 0 0
0 0 0 0 0 0 0 0 0 0 0 0 0 0 0 0 0 0 0 0 0 0 0 0 0 0 0 0 0 0 0 0 0 0 0 0 0 0 0 0 0 0 0 0
0 0 0 0 0 0 0 0 0 0 0 0 0 0 0 0 0 0 0 0 0 0 0 0 0 0 0 0 0 0 0 0 0 0 0 0 0 0 0 0 0 0 0 0
0 0 0 0 0 0 0 0 0 0 0 0 0 0 0 0 0 0 0 0 0 0 0 0 0 0 0 0 0 0 0 0 0 0 0 0 0 0 0 0 0 0 0 0
0 0 0 0 0 0 0 0 0 0 0 0 0 0 0 0 0 0 0 0 0 0 0 0 0 0 0 0 0 0 0 0 0 0 0 0 0 0 0 0 0 0 0 0
0 0 0 0 0 0 0 0 0 0 0 0 0 0 0 0 0 0 0 0 0 0 0 0 0 0 0 0 0 0 0 0 0 0 0 0 0 0 0 0 0 0 0 0
0 0 0 0 0 0 0 0 0 0 0 0 0 0 0 0 0 0 0 0 0 0 0 0 0 0 0 0 0 0 0 0 0 0 0 0 0 0 0 0 0 0 0 0
0 0 0 0 0 0 0 0 0 0 0 0 0 0 0 0 0 0 0 0 0 0 0 0 0 0 0 0 0 0 0 0 0 0 0 0 0 0 0 0 0 0 0 0
0 0 0 0 0 0 0 0 0 0 0 0 0 0 0 0 0 0 0 0 0 0 0 0 0 0 0 0 0 0 0 0 0 0 0 0 0 0 0 0 0 0 0 0
0 0 0 0 0 0 0 0 0 0 0 0 0 0 0 0 0 0 0 0 0 0 0 0 0 0 0 0 0 0 0 0 0 0 0 0 0 0 0 0 0 0 0 0
0 0 0 0 0 0 0 0 0 0 0 0 0 0 0 0 0 0 0 0 0 0 0 0 0 0 0 0 0 0 0 0 0 0 0 0 0 0 0 0 0 0 0 0
0 0 0 0 0 0 0 0 0 0 0 0 0 0 0 0 0 0 0 0 0 0 0 0 0 0 0 0 0 0 0 0 0 0 0 0 0 0 0 0 0 0 0 0
0 0 0 0 0 0 0 0 0 0 0 0 0 0 0 0 0 0 0 0 0 0 0 0 0 0 0 0 0 0 0 0 0 0 0 0 0 0 0 0 0 0 0 0
0 0 0 0 0 0 0 0 0 0 0 0 0 0 0 0 0 0 0 0 0 0 0 0 0 0 0 0 0 0 0 0 0 0 0 0 0 0 0 0 0 0 0 0
0 0 0 0 0 0 0 0 0 0 0 0 0 0 0 0 0 0 0 0 0 0 0 0 0 0 0 0 0 0 0 0 0 0 0 0 0 0 0 0 0 0 0 0
0 0 0 0 0 0 0 0 0 0 0 0 0 0 0 0 0 0 0 0 0 0 0 0 0 0 0 0 0 0 0 0 0 0 0 0 0 0 0 0 0 0 0 0
0 0 0 0 0 0 0 0 0 0 0 0 0 0 0 0 0 0 0 0 0 0 0 0 0 0 0 0 0 0 0 0 0 0 0 0 0 0 0 0 0 0 0 0
0 0 0 0 0 0 0 0 0 0 0 0 0 0 0 0 0 0 0 0 0 0 0 0 0 0 0 0 0 0 0 0 0 0 0 0 0 0 0 0 0 0 0 0
0 0 0 0 0 0 0 0 0 0 0 0 0 0 0 0 0 0 0 0 0 0 0 0 0 0 0 0 0 0 0 0 0 0 0 0 0 0 0 0 0 0 0 0
0 0 0 0 0 0 0 0 0 0 0 0 0 0 0 0 0 0 0 0 0 0 0 0 0 0 0 0 0 0 0 0 0 0 0 0 0 0 0 0 0 0 0 0
0 0 0 0 0 0 0 0 0 0 0 0 0 0 0 0 0 0 0 0 0 0 0 0 0 0 0 0 0 0 0 0 0 0 0 0 0 0 0 0 0 0 0 0
0 0 0 0 0 0 0 0 0 0 0 0 0 0 0 0 0 0 0 0 0 0 0 0 0 0 0 0 0 0 0 0 0 0 0 0 0 0 0 0 0 0 0 0
0 0 0 0 0 0 0 0 0 0 0 0 0 0 0 0 0 0 0 0 0 0 0 0 0 0 0 0 0 0 0 0 0 0 0 0 0 0 0 0 0 0 0 0
Height
5599 5600 5600 5601 5602 5602 5602 5603 5604 5606 5606 5608 5606 5606 5607 5608 5609 5610 5611 5611 5612 5613 5614 5615 5617 5618 5620 5622 5624 5625 5626 5628 5630 5631 5633 5634 5635 5636 5637 5637 5638 5638 5639 5640
5594 5594 5594 5595 5597 5597 5597 5598 5599 5600 5601 5602 5600 5600 5600 5601 5602 5603 5604 5604 5604 5605 5606 5607 5608 5609 5611 5612 5614 5615 5617 5618 5619 5620 5622 5623 5624 5625 5625 5626 5626 5626 5627 5628
5589 5589 5588 5590 5593 5592 5592 5593 5594 5594 5597 5595 5595 5594 5594 5595 5596 5596 5596 5596 5597 5597 5598 5598 5599 5600 5601 5602 5604 5605 5606 5607 5608 5609 5611 5612 5613 5614 5614 5614 5615 5615 5616 5617
5583 5584 5583 5589 5587 5587 5586 5587 5587 5588 5589 5588 5588 5588 5588 5588 5588 5588 5589 5589 5589 5589 5590 5590 5591 5591 5591 5592 5593 5594 5595 5596 5596 5598 5599 5600 5601 5602 5602 5603 5604 5605 5605 5606
5577 5577 5578 5582 5582 5581 5580 5582 5582 5581 5582 5582 5581 5582 5583 5582 5581 5581 5581 5581 5581 5581 5582 5582 5582 5582 5582 5582 5582 5583 5584 5584 5585 5586 5587 5589 5590 5590 5591 5592 5593 5594 5594 5595
5572 5571 5572 5577 5576 5574 5575 5575 5576 5575 5575 5575 5575 5575 5576 5575 5574 5574 5574 5574 5573 5573 5573 5573 5573 5573 5573 5572 5572 5572 5573 5573 5574 5574 5576 5577 5578 5579 5580 5581 5583 5583 5584 5584
5566 5565 5567 5570 5569 5568 5569 5570 5569 5568 5567 5567 5567 5568 5568 5567 5567 5566 5566 5566 5566 5565 5565 5565 5564 5564 5563 5563 5562 5562 5562 5563 5563 5564 5565 5566 5567 5568 5570 5571 5572 5573 5574 5575
5561 5560 5564 5563 5562 5562 5562 5561 5560 5560 5560 5560 5560 5560 5560 5560 5559 5559 5558 5559 5558 5558 5557 5556 5555 5555 5554 5553 5553 5552 5552 5553 5553 5553 5554 5555 5556 5558 5559 5560 5562 5563 5564 5565
5556 5558 5557 5555 5555 5554 5553 5553 5553 5552 5553 5553 5553 5553 5553 5553 5552 5552 5551 5551 5551 5550 5550 5548 5547 5546 5545 5544 5543 5543 5542 5542 5542 5543 5544 5545 5546 5548 5549 5550 5551 5552 5553 5554
5550 5551 5550 5548 5547 5546 5546 5545 5545 5545 5545 5545 5545 5545 5545 5545 5545 5544 5544 5543 5542 5542 5541 5540 5538 5536 5535 5534 5533 5533 5533 5532 5533 5533 5534 5535 5536 5538 5539 5540 5541 5542 5543 5544
5542 5544 5542 5541 5539 5539 5538 5537 5537 5537 5537 5537 5538 5538 5538 5537 5537 5536 5535 5534 5534 5533 5532 5531 5529 5527 5525 5524 5523 5523 5523 5523 5523 5524 5525 5526 5527 5528 5529 5530 5531 5533 5534 5534
5536 5536 5535 5534 5532 5531 5530 5529 5529 5529 5529 5529 5529 5529 5529 5529 5528 5528 5527 5526 5525 5524 5523 5521 5520 5518 5516 5515 5514 5514 5514 5514 5514 5515 5515 5516 5517 5519 5519 5521 5522 5522 5523 5524
5528 5527 5526 5525 5524 5523 5522 5521 5521 5521 5521 5521 5521 5521 5520 5520 5520 5519 5518 5517 5516 5515 5514 5512 5511 5509 5508 5507 5506 5506 5506 5506 5506 5506 5506 5507 5508 5509 5511 5512 5512 5512 5513 5513
5519 5519 5518 5517 5516 5515 5514 5513 5513 5512 5512 5512 5512 5512 5511 5511 5511 5510 5509 5508 5507 5506 5505 5504 5502 5501 5499 5499 5498 5498 5497 5497 5497 5497 5498 5499 5499 5500 5501 5502 5503 5503 5504 5504
5511 5510 5510 5509 5508 5507 5506 5505 5505 5504 5503 5503 5503 5503 5502 5502 5501 5500 5499 5499 5498 5497 5496 5495 5494 5493 5492 5491 5490 5490 5490 5490 5489 5489 5490 5490 5491 5491 5492 5492 5493 5493 5494 5495
5502 5501 5501 5500 5500 5499 5498 5497 5496 5495 5495 5494 5494 5494 5493 5493 5492 5491 5491 5490 5489 5488 5487 5486 5485 5485 5484 5483 5483 5483 5483 5483 5482 5483 5483 5483 5483 5483 5483 5484 5484 5484 5485 5486
5493 5493 5492 5492 5491 5490 5489 5488 5487 5486 5486 5485 5485 5485 5484 5484 5484 5483 5482 5481 5481 5480 5479 5478 5477 5477 5477 5476 5476 5476 5476 5476 5476 5475 5475 5475 5476 5476 5476 5476 5476 5476 5476 5477
5484 5484 5483 5483 5482 5481 5480 5478 5477 5477 5476 5476 5476 5476 5475 5475 5475 5474 5473 5473 5472 5472 5471 5470 5470 5470 5470 5470 5469 5469 5469 5469 5469 5469 5469 5469 5469 5469 5469 5469 5468 5468 5469 5469
5476 5475 5474 5473 5472 5471 5470 5469 5468 5467 5467 5466 5467 5466 5466 5466 5466 5466 5465 5465 5464 5464 5463 5463 5462 5462 5463 5463 5463 5462 5462 5462 5462 5462 5462 5462 5462 5462 5462 5462 5462 5462 5462 5462
5467 5466 5465 5464 5463 5462 5461 5460 5459 5458 5458 5457 5457 5457 5458 5458 5457 5457 5457 5457 5456 5456 5456 5455 5455 5455 5455 5455 5455 5455 5455 5455 5455 5455 5455 5455 5455 5455 5455 5455 5455 5455 5455 5455
5458 5457 5456 5455 5455 5453 5452 5451 5449 5449 5449 5449 5449 5449 5449 5449 5449 5449 5449 5449 5449 5448 5448 5448 5448 5448 5447 5447 5448 5448 5448 5449 5449 5449 5449 5449 5449 5449 5449 5449 5449 5449 5449 5449
5450 5449 5447 5446 5446 5445 5443 5442 5441 5440 5440 5440 5440 5440 5441 5441 5441 5441 5441 5441 5441 5440 5440 5440 5440 5440 5440 5440 5441 5441 5442 5442 5442 5442 5442 5442 5442 5442 5442 5443 5443 5443 5443 5444
5441 5440 5439 5438 5436 5435 5435 5434 5433 5432 5432 5433 5433 5433 5433 5433 5433 5433 5433 5433 5433 5433 5433 5433 5433 5433 5433 5433 5434 5434 5435 5436 5436 5436 5436 5436 5436 5436 5436 5437 5437 5438 5438 5438
5432 5431 5430 5429 5428 5427 5426 5425 5424 5424 5424 5425 5425 5425 5425 5425 5425 5425 5425 5425 5425 5426 5426 5426 5426 5426 5427 5427 5428 5428 5429 5430 5430 5430 5430 5430 5430 5431 5431 5431 5432 5432 5433 5434
5423 5422 5421 5420 5419 5418 5418 5417 5416 5416 5416 5416 5417 5417 5417 5417 5418 5418 5418 5418 5418 5419 5419 5419 5420 5421 5421 5422 5422 5423 5423 5424 5424 5424 5424 5424 5425 5425 5426 5426 5427 5427 5428 5429
5415 5414 5413 5412 5411 5410 5409 5408 5408 5408 5408 5408 5408 5409 5409 5409 5410 5410 5411 5412 5412 5412 5413 5413 5414 5415 5416 5416 5417 5417 5418 5419 5419 5419 5419 5420 5420 5420 5421 5422 5422 5423 5424 5424
5407 5405 5404 5403 5402 5401 5401 5400 5400 5400 5400 5400 5400 5401 5401 5402 5403 5403 5404 5405 5406 5406 5407 5407 5408 5409 5410 5410 5411 5412 5413 5413 5414 5414 5414 5415 5415 5416 5416 5417 5418 5418 5419 5420
Wind_Speed
22 22 22 21 23 24 24 24 24 23 23 23 24 25 26 27 27 28 29 30 31 33 35 36 37 38 39 40 41 40 40 41 43 43 44 45 45 45 45 46 46 48 47 46
22 22 23 23 22 24 25 25 25 25 23 22 24 26 26 27 28 29 29 30 32 32 34 35 37 38 39 41 41 41 41 42 43 43 43 44 44 44 44 44 45 45 44 44
23 23 22 23 21 22 24 25 26 25 23 24 25 25 26 27 28 29 30 30 32 33 33 35 36 38 39 41 42 43 43 43 43 44 43 43 43 43 42 43 43 43 43 43
22 22 23 21 21 21 22 23 24 24 23 24 25 26 26 26 28 28 28 29 31 32 33 35 36 37 39 41 42 43 44 44 44 44 44 45 44 43 43 42 42 41 41 41
21 22 22 22 22 23 24 24 25 25 25 25 26 26 26 26 27 28 28 29 30 31 32 34 35 36 37 39 40 42 43 43 43 43 43 44 44 42 42 41 41 40 39 39
22 23 23 22 22 23 24 24 24 25 26 27 27 27 26 27 27 28 29 30 30 31 32 33 34 35 36 38 39 40 40 40 41 41 41 42 42 41 40 40 39 38 37 37
22 24 24 23 23 24 25 25 24 25 26 26 26 27 27 27 28 28 29 29 29 31 32 33 34 34 36 37 38 38 38 38 38 39 39 40 40 40 40 39 39 38 36 36
22 24 24 25 25 25 26 26 26 26 25 26 26 26 26 26 27 28 28 29 29 30 31 33 34 34 34 35 36 36 36 37 36 37 37 38 39 39 38 37 37 37 37 36
23 23 24 26 27 27 28 28 27 27 25 25 25 25 25 26 26 27 28 29 30 30 31 32 33 34 34 34 34 35 35 35 35 36 35 36 37 38 37 37 37 36 36 36
24 23 23 25 26 27 28 28 28 28 27 26 26 26 26 26 27 28 29 29 30 31 31 32 33 34 35 34 34 34 34 34 34 34 34 35 35 36 36 36 36 36 35 36
25 24 25 24 25 26 27 28 28 28 28 27 26 26 26 27 28 28 29 29 29 30 31 31 32 33 33 34 34 33 33 34 34 34 34 34 34 34 34 34 34 34 35 35
24 25 26 25 26 27 27 27 27 27 28 28 28 27 27 28 28 29 29 30 30 30 30 30 31 30 30 31 31 31 31 32 33 33 33 33 33 33 33 33 34 34 34 34
26 25 26 26 26 26 26 27 27 27 28 28 28 29 29 29 30 30 30 30 31 31 31 30 29 29 29 29 29 30 30 30 30 31 32 32 32 31 31 32 33 32 33 33
27 27 27 27 27 27 27 27 28 28 29 29 30 30 31 31 31 31 31 31 31 31 30 30 29 28 28 28 28 28 28 29 28 28 28 29 30 30 31 31 31 31 31 31
29 29 29 29 29 29 29 29 29 29 29 30 30 31 31 31 31 30 30 30 30 30 30 30 30 29 28 28 27 27 27 27 27 26 26 26 26 28 29 29 30 30 29 30
29 30 30 30 30 30 30 30 30 30 29 30 30 31 31 30 30 30 29 29 29 29 29 29 29 29 28 26 26 25 25 26 26 26 26 26 26 27 27 27 28 28 29 29
29 29 29 30 30 30 30 30 30 30 30 30 30 30 30 30 30 30 29 28 28 28 28 28 27 26 26 26 25 25 26 26 25 25 25 26 26 26 26 26 26 26 27 27
28 29 29 29 29 29 29 30 30 30 30 30 30 29 29 29 29 28 28 28 28 27 27 26 26 25 24 24 25 25 26 26 25 25 24 24 25 25 25 25 25 25 25 25
28 29 29 29 29 29 29 29 29 28 29 29 29 28 28 28 27 28 27 27 27 26 26 26 26 26 25 25 24 24 25 26 25 24 23 23 23 23 23 23 23 22 22 22
29 29 29 29 30 30 30 30 29 28 28 28 28 28 27 27 26 26 26 25 25 26 26 25 25 25 25 24 24 23 23 23 23 22 22 22 23 22 22 22 21 21 21 21
29 29 29 30 30 30 30 29 28 28 27 27 26 26 26 25 25 25 25 25 25 25 25 25 24 24 24 24 23 22 21 20 20 20 21 21 21 21 21 21 21 20 20 19
28 28 29 30 30 29 29 28 27 26 25 24 25 25 24 25 25 25 25 25 25 25 24 24 24 23 22 22 22 21 21 20 20 20 20 20 20 20 20 20 19 19 18 18
28 28 28 28 28 28 27 26 25 25 24 24 24 24 24 24 24 24 24 24 24 23 23 22 22 22 21 20 20 20 20 20 20 19 19 19 19 19 18 18 18 17 17 17
27 27 27 27 27 27 26 26 25 25 25 25 24 24 24 24 24 24 23 22 22 22 22 21 20 20 20 19 19 19 19 19 19 19 19 19 18 18 17 17 17 17 16 16
27 27 26 27 26 26 25 25 25 25 25 25 25 25 24 24 23 23 22 21 20 20 20 19 19 18 18 18 18 18 18 18 18 17 17 16 16 16 16 16 16 16 16 16
26 26 27 26 26 26 25 25 25 24 24 23 23 23 23 22 22 21 21 20 19 18 18 18 18 18 18 18 18 18 17 17 17 16 16 15 15 16 16 16 15 15 15 15
26 26 26 26 25 25 24 24 23 23 22 22 21 21 21 21 21 20 20 19 18 18 17 17 17 18 18 19 18 18 18 17 17 16 15 15 15 15 15 15 15 15 15 14
Wind_Direction
262 261 261 261 259 257 258 263 265 268 269 272 271 268 261 258 257 257 257 257 257 256 254 254 255 255 254 256 258 260 259 259 260 261 261 262 263 264 264 265 264 265 266 267
262 263 263 261 260 259 260 263 266 268 269 269 269 267 264 260 259 260 260 259 258 258 258 258 257 257 256 258 260 261 261 262 262 262 262 263 264 264 264 265 265 265 265 266
263 264 263 261 262 263 262 262 265 266 268 268 266 267 267 264 263 263 264 262 260 260 261 260 260 260 260 261 261 263 264 264 265 263 263 264 265 265 266 266 265 264 264 265
266 265 263 264 266 267 266 264 266 267 268 269 268 266 266 266 265 265 265 265 262 262 262 261 262 263 264 264 264 264 264 265 265 264 264 265 265 266 267 267 266 266 265 267
268 266 267 265 269 272 270 267 268 269 269 271 270 269 267 265 263 264 265 265 265 264 264 264 264 266 267 267 267 266 266 265 265 266 265 265 264 266 267 267 267 267 268 268
271 269 270 268 269 272 273 271 270 271 271 271 271 270 268 268 268 266 266 266 266 266 266 267 268 268 270 270 269 269 267 265 265 266 265 265 264 265 266 266 266 267 267 269
272 271 270 270 271 272 273 274 273 274 273 272 272 272 272 271 270 269 267 266 268 268 268 269 270 271 272 272 271 270 268 266 267 267 265 264 264 264 265 266 266 266 268 269
274 273 272 273 273 274 275 274 273 273 273 272 273 273 272 272 271 272 270 269 270 272 272 272 272 273 274 272 270 270 270 268 267 266 265 264 263 263 263 265 265 266 268 268
274 276 277 276 276 275 275 274 273 272 271 271 272 272 272 272 272 273 274 273 272 273 274 275 275 275 275 274 272 271 270 268 266 264 264 263 263 264 265 265 266 267 268 268
276 278 279 280 279 277 275 274 272 270 270 272 273 272 273 273 274 275 276 276 274 273 275 276 277 277 275 275 275 273 269 266 265 264 264 263 264 265 265 265 266 267 267 269
276 277 278 280 280 280 279 276 272 270 270 270 272 273 273 275 277 277 277 277 276 276 276 277 278 278 276 274 275 274 270 267 266 265 265 265 265 265 264 264 266 267 268 269
278 277 278 279 280 280 280 277 273 272 270 269 270 272 274 275 277 278 277 278 278 277 276 277 278 278 278 276 274 272 272 270 268 267 267 266 265 263 263 264 265 266 268 269
278 278 280 280 281 282 280 278 275 273 271 270 270 271 274 276 277 278 277 278 278 278 279 279 278 278 278 277 273 272 272 271 270 268 267 265 264 263 263 265 266 268 269 270
274 275 277 280 280 281 281 280 278 275 273 271 271 273 276 278 279 278 276 276 277 277 279 280 278 278 278 277 274 271 270 270 271 270 267 266 266 265 267 268 268 269 269 270
273 273 275 277 279 280 280 280 278 276 275 274 274 275 277 278 277 277 277 276 276 277 278 279 278 277 277 276 273 269 268 268 270 269 268 269 270 269 269 269 271 271 271 271
275 276 277 277 278 279 280 281 280 278 276 275 274 274 276 276 276 276 277 277 276 277 278 278 277 276 275 274 272 271 270 269 269 269 268 271 272 271 271 273 273 272 272 272
276 276 278 278 279 279 280 281 280 278 277 276 275 274 274 275 276 276 276 277 277 277 277 276 275 274 272 271 270 270 269 270 271 272 272 272 272 271 273 275 274 273 274 273
279 278 279 280 281 282 281 281 280 278 276 275 275 275 274 273 274 275 276 276 276 276 276 274 272 271 271 270 269 269 269 271 273 274 273 272 272 272 273 274 273 273 274 273
281 281 281 281 282 283 284 283 280 278 276 275 274 273 273 273 273 274 275 275 274 273 274 274 272 271 271 270 269 269 270 272 274 274 272 271 271 271 273 274 273 273 273 274
282 283 281 281 282 283 284 283 280 277 275 274 273 273 274 275 275 274 273 272 272 272 272 273 273 272 272 271 270 268 269 270 271 271 270 270 269 269 269 269 271 273 275 276
283 283 282 281 282 283 284 283 280 276 274 273 273 273 273 273 273 273 273 272 271 272 272 273 273 273 271 270 268 267 267 267 268 268 268 268 268 269 269 267 270 272 273 274
284 284 284 282 282 282 283 281 279 276 273 272 271 272 273 273 273 273 274 273 271 271 272 272 272 272 270 267 266 264 263 264 266 267 267 267 268 268 267 267 268 269 269 270
284 284 283 282 281 281 280 279 276 274 272 271 271 272 273 273 273 273 274 272 270 269 270 270 269 268 267 267 265 262 261 261 264 266 266 267 267 268 268 267 267 268 269 269
282 282 282 282 283 283 282 279 276 272 271 270 271 272 272 272 271 272 272 271 270 268 267 266 265 264 264 264 262 261 260 260 262 264 266 266 265 265 266 266 266 267 267 266
283 282 282 284 284 284 282 279 276 273 271 269 270 270 270 270 270 270 270 270 269 267 265 264 263 262 261 261 260 259 259 261 262 263 263 261 260 261 263 264 264 264 264 264
284 283 283 284 285 283 281 279 277 274 272 270 268 267 267 267 267 267 265 265 265 265 264 262 261 261 262 261 260 259 258 258 259 261 259 258 258 259 261 262 262 261 261 262
283 283 284 284 283 281 280 279 278 275 272 268 265 264 264 264 264 264 263 262 261 261 262 261 261 261 260 259 258 258 257 257 257 258 258 259 259 259 260 261 261 258 259 260